Regional Weather Roundup
Issued by NWS Mt. Holly, NJ

Home | Current Version | Previous Version | Text Only | Print | Product List | Glossary On
Versions: 1 2 3 4 5 6 7 8 9 10 11 12 13 14 15 16 17 18 19 20 21 22 23 24 25 26 27
000
ASUS41 KPHI 240214
RWRPHI

REGIONAL WEATHER ROUNDUP
NATIONAL WEATHER SERVICE MOUNT HOLLY NJ
1000 PM EDT MON MAY 23 2022

NOTE:  "FAIR" INDICATES FEW OR NO CLOUDS BELOW 12,000 FEET WITH NO
SIGNIFICANT WEATHER AND/OR OBSTRUCTIONS TO VISIBILITY.

 * = STATION DOES NOT REPORT PRECIPITATION (E.G. RAIN, SNOW, ETC.)
        OR FOG.

NJZ015>026-240300-
SOUTHERN NEW JERSEY

CITY           SKY/WX    TMP DP  RH WIND       PRES   REMARKS
POMONA         MOCLDY    63  48  58 VRB3      30.20R
WILDWOOD*      MOCLDY    62  51  67 SE5       30.22R
MILLVILLE      CLOUDY    63  47  55 VRB3      30.21R
WRIGHTSTOWN    MOCLDY    64  47  53 S6        30.19R
MOUNT HOLLY    CLOUDY    67  48  50 VRB3      30.20R
TRENTON        CLOUDY    67  49  52 SE6       30.18R

$$
NJZ001>014-240300-
NORTHERN NEW JERSEY

CITY           SKY/WX    TMP DP  RH WIND       PRES   REMARKS
SUSSEX         MOCLDY    62  45  53 N5        30.23R
ANDOVER*         N/A     64  45  49 NE3       30.22R
MORRISTOWN     MOCLDY    64  48  55 CALM      30.21R
NEWARK         CLOUDY    70  44  39 NE12      30.20R
TETERBORO      MOCLDY    66  41  40 NE6       30.19R
CALDWELL       MOCLDY    69  41  36 NE6       30.21R
SOMERVILLE     MOCLDY    68  48  48 NE6       30.17R
ALLAIRE*       MOCLDY    64  48  56 SE5       30.21R

$$
PAZ043-044-047-054-055-060>062-066>071-240300-
EASTERN PENNSYLVANIA

CITY           SKY/WX    TMP DP  RH WIND       PRES   REMARKS
PHILADELPHIA   CLOUDY    68  54  60 SE6       30.21R
NORTH PHILA    CLOUDY    70  50  49 CALM      30.21R
BLUE BELL*     CLOUDY    66  49  53 NW3       30.21R
DOYLESTOWN     CLOUDY    66  47  50 VRB3      30.20R
QUAKERTOWN*    CLEAR     64  48  55 CALM      30.22R
PERKASIE*      CLOUDY    64  46  52 N3        30.22R
POTTSTOWN      CLOUDY    64  46  52 CALM      30.22R
LANCASTER      CLOUDY    65  49  56 CALM      30.22R
COATESVILLE    MOCLDY    64  48  55 N3        30.23R
WEST CHESTER   FAIR      66  45  45 N3        30.21R
READING        CLOUDY    66  46  48 MISG      30.20R
ALLENTOWN      MOCLDY    62  48  60 CALM      30.21R
QN CITY/ALNTWN FAIR      64  46  52 N3        30.23R
MOUNT POCONO   MOCLDY    56  45  66 N7        30.23R
HAZLETON       CLOUDY    59  45  58 CALM      30.27R
LEHIGHTON      CLOUDY    61  46  59 CALM      30.23R
WILKES BARRE   CLOUDY    62  45  53 NE8       30.23R

$$
DEZALL-MDZ008-012-015-019-020-240300-
DELAWARE AND EASTERN MARYLAND

CITY           SKY/WX    TMP DP  RH WIND       PRES   REMARKS
WILMINGTON     CLOUDY    68  51  54 NW5       30.21R
DOVER          MOCLDY    62  51  68 SE6       30.20R
CHESWOLD       CLOUDY    64  55  72 CALM      30.21R
GEORGETOWN     CLOUDY    64  54  69 SE6       30.21R
EASTON         PTCLDY    70  59  68 N3        30.23S
PATUXENT       MOCLDY    69  58  67 NE7       30.17F
OCEAN CITY     MOCLDY    60  55  83 CALM      30.22R
WALLOPS ISLAND MOCLDY    63  54  72 SE3       30.21S
SALISBURY      CLOUDY    64  53  67 SE3       30.21R

$$
PAZ001-021-NYZ056-072-MDZ011-DCZ001-240300-
OTHER NEARBY LOCATIONS

CITY           SKY/WX    TMP DP  RH WIND       PRES   REMARKS
HARRISBURG     LGT RAIN  64  46  52 NW3       30.21R
STATE COLLEGE  CLOUDY    59  46  63 VRB5      30.23R
WILLIAMSPORT   CLOUDY    61  44  53 CALM      30.21S
BINGHAMTON     MOCLDY    52  43  71 N8        30.26R
NEW YORK CITY  MOCLDY    68  44  42 NE7       30.23R
BALTIMORE      LGT RAIN  63  54  72 CALM      30.20S
WASHINGTON DC  CLOUDY    64  51  62 N9        30.21S

$$



USA.gov is the U.S. government's official web portal to all federal, state and local government web resources and services.